Date String (YYYY-MM-DD hh:mm:ss) UTC,Instrument flags,Ambient pressure (hPa),Sample flow (lpm),Bypass flow (lpm),Sample temperature (°C),Ambient temperature (°C),ASC tube jacket temperature (°C),LED temperature (°C),Box temperature (°C),Sample RH (%),Span deviation,Mass concentration (μg/m³),Mass concentration (μg/m³),Mass concentration (μg/m³)
DateTimeUTC,F1_M11,P_M11,Q1_M11,Q2_M11,T1_M11,T2_M11,T3_M11,T4_M11,T5_M11,U1_M11,ZSPAN_M11,X0_M11,X2_M11,X1_M11
2022-04-17 18:00:00,,0825.5,5.00,0.00,25.0,23.9,00.0,33.9,26.8,15.0,0000.0,0016.09,0005.02,0001.53
2022-04-17 18:01:00,,0825.5,4.99,0.00,25.0,24.0,00.0,33.9,26.8,15.0,0000.0,0015.50,0004.95,0001.53
2022-04-17 18:02:00,,0825.5,5.00,0.00,25.0,24.0,00.0,33.9,26.8,14.9,0000.0,0014.42,0004.85,0001.49
2022-04-17 18:03:00,,0825.5,5.00,0.00,24.9,24.0,00.0,33.9,26.8,15.2,0000.0,0014.26,0004.83,0001.47
2022-04-17 18:04:00,,0825.5,5.01,0.00,24.9,24.0,00.0,33.9,26.7,15.0,0000.0,0014.26,0004.77,0001.45
2022-04-17 18:05:00,,0825.5,5.01,0.00,25.0,24.0,00.0,33.9,26.8,15.2,0000.0,0014.18,0004.75,0001.44
2022-04-17 18:06:00,,0825.5,4.99,0.00,25.0,24.1,00.0,33.9,26.8,14.9,0000.0,0014.14,0004.74,0001.43
2022-04-17 18:07:00,,0825.6,5.00,0.00,25.0,24.1,00.0,33.9,26.8,14.5,0000.0,0014.26,0004.72,0001.41
2022-04-17 18:08:00,,0825.5,5.01,0.00,25.0,24.1,00.0,33.9,26.8,14.9,0000.0,0014.01,0004.68,0001.40
2022-04-17 18:09:00,,0825.5,5.00,0.00,25.0,24.1,00.0,33.9,26.8,14.7,0000.0,0014.15,0004.66,0001.39
2022-04-17 18:10:00,,0825.4,4.99,0.00,25.0,24.1,00.0,33.9,26.8,14.7,0000.0,0014.28,0004.56,0001.37
2022-04-17 18:11:00,,0825.4,4.99,0.00,25.0,24.1,00.0,33.9,26.8,14.7,0000.0,0014.66,0004.56,0001.36
2022-04-17 18:12:00,,0825.5,4.99,0.00,25.0,24.1,00.0,33.9,26.8,15.0,0000.0,0015.04,0004.63,0001.38
2022-04-17 18:13:00,,0825.4,5.02,0.00,25.0,24.0,00.0,33.9,26.8,15.1,0000.0,0014.93,0004.68,0001.41
2022-04-17 18:14:00,,0825.4,4.99,0.00,25.0,24.0,00.0,33.9,26.8,15.3,0000.0,0015.07,0004.68,0001.42
2022-04-17 18:15:00,,0825.4,5.01,0.00,25.0,24.0,00.0,34.0,26.8,15.0,0000.0,0015.30,0004.73,0001.48
2022-04-17 18:16:00,,0825.5,4.99,0.00,25.1,24.0,00.0,34.0,26.9,15.1,0000.0,0015.13,0004.82,0001.50
2022-04-17 18:17:00,,0825.4,5.00,0.00,25.1,24.0,00.0,34.0,26.8,14.4,0000.0,0014.82,0004.84,0001.49
2022-04-17 18:18:00,,0825.4,4.99,0.00,25.1,24.0,00.0,34.0,26.9,14.7,0000.0,0014.73,0004.90,0001.52
2022-04-17 18:19:00,,0825.5,5.01,0.00,25.1,24.0,00.0,34.0,26.9,14.7,0000.0,0014.45,0004.99,0001.54
2022-04-17 18:20:00,,0825.4,5.00,0.00,25.1,24.1,00.0,34.0,26.9,15.1,0000.0,0014.55,0005.01,0001.55
2022-04-17 18:21:00,,0825.3,4.99,0.00,25.1,24.1,00.0,34.0,26.9,15.0,0000.0,0014.14,0005.01,0001.55
2022-04-17 18:22:00,,0825.3,4.99,0.00,25.1,24.1,00.0,34.0,26.9,14.9,0000.0,0014.32,0005.11,0001.58
2022-04-17 18:23:00,,0825.5,5.02,0.00,25.1,24.1,00.0,34.0,26.9,14.5,0000.0,0014.62,0005.26,0001.62
2022-04-17 18:24:00,,0825.4,4.99,0.00,25.1,24.2,00.0,34.0,26.9,13.7,0000.0,0015.41,0005.41,0001.65
2022-04-17 18:25:00,,0825.4,5.00,0.00,25.1,24.2,00.0,34.0,27.0,14.1,0000.0,0015.62,0005.48,0001.68
2022-04-17 18:26:00,,0825.3,5.01,0.00,25.1,24.2,00.0,34.0,27.0,14.3,0000.0,0015.56,0005.53,0001.67
2022-04-17 18:27:00,,0825.2,4.99,0.00,25.2,24.2,00.0,34.1,27.0,14.1,0000.0,0015.33,0005.53,0001.66
2022-04-17 18:28:00,,0825.2,5.02,0.00,25.2,24.2,00.0,34.1,27.0,14.0,0000.0,0015.42,0005.60,0001.70
2022-04-17 18:29:00,,0825.2,4.99,0.00,25.1,24.2,00.0,34.1,26.9,14.0,0000.0,0015.33,0005.62,0001.73
2022-04-17 18:30:00,,0825.2,5.00,0.00,25.1,24.2,00.0,34.1,27.0,14.0,0000.0,0015.56,0005.53,0001.74
2022-04-17 18:31:00,,0825.3,5.00,0.00,25.1,24.2,00.0,34.1,26.9,14.2,0000.0,0016.08,0005.57,0001.75
2022-04-17 18:32:00,,0825.3,4.99,0.00,25.1,24.2,00.0,34.1,26.9,14.2,0000.0,0016.38,0005.66,0001.79
2022-04-17 18:33:00,,0825.3,4.99,0.00,25.1,24.2,00.0,34.1,26.9,14.3,0000.0,0016.06,0005.63,0001.79
2022-04-17 18:34:00,,0825.3,5.01,0.00,25.1,24.2,00.0,34.1,26.9,14.1,0000.0,0016.04,0005.57,0001.78
2022-04-17 18:35:00,,0825.3,5.01,0.00,25.1,24.2,00.0,34.1,26.9,14.4,0000.0,0015.93,0005.54,0001.78
2022-04-17 18:36:00,,0825.2,4.99,0.00,25.1,24.2,00.0,34.1,26.9,14.5,0000.0,0015.97,0005.54,0001.76
2022-04-17 18:37:00,,0825.1,4.99,0.00,25.1,24.2,00.0,34.1,26.9,14.4,0000.0,0016.16,0005.58,0001.76
2022-04-17 18:38:00,,0825.1,5.02,0.00,25.1,24.2,00.0,34.1,26.9,14.5,0000.0,0016.31,0005.63,0001.78
2022-04-17 18:39:00,,0825.1,5.00,0.00,25.1,24.2,00.0,34.1,26.9,14.7,0000.0,0016.10,0005.50,0001.76
2022-04-17 18:40:00,,0825.1,4.99,0.00,25.1,24.2,00.0,34.1,26.9,14.5,0000.0,0016.52,0005.47,0001.74
2022-04-17 18:41:00,,0825.2,4.99,0.00,25.1,24.2,00.0,34.1,26.9,14.6,0000.0,0016.48,0005.56,0001.69
2022-04-17 18:42:00,,0825.4,5.01,0.00,25.1,24.2,00.0,34.1,26.9,14.7,0000.0,0015.91,0005.52,0001.67
2022-04-17 18:43:00,,0825.4,5.01,0.00,25.1,24.2,00.0,34.1,26.9,14.7,0000.0,0015.93,0005.52,0001.64
2022-04-17 18:44:00,,0825.4,4.99,0.00,25.1,24.2,00.0,34.1,26.9,14.6,0000.0,0016.06,0005.59,0001.65
2022-04-17 18:45:00,,0825.3,4.99,0.00,25.1,24.2,00.0,34.1,27.0,14.5,0000.0,0015.67,0005.59,0001.63
2022-04-17 18:46:00,,0825.3,5.01,0.00,25.2,24.2,00.0,34.1,27.0,14.6,0000.0,0015.41,0005.55,0001.62
2022-04-17 18:47:00,,0825.3,4.99,0.00,25.2,24.2,00.0,34.1,27.0,14.7,0000.0,0015.68,0005.56,0001.66
2022-04-17 18:48:00,,0825.1,4.99,0.00,25.2,24.2,00.0,34.1,27.0,15.0,0000.0,0016.25,0005.50,0001.66
2022-04-17 18:49:00,,0825.2,5.01,0.00,25.2,24.2,00.0,34.1,27.0,14.8,0000.0,0016.22,0005.48,0001.66
2022-04-17 18:50:00,,0825.2,5.01,0.00,25.2,24.2,00.0,34.1,27.0,14.7,0000.0,0016.68,0005.51,0001.63
2022-04-17 18:51:00,,0825.2,4.99,0.00,25.2,24.2,00.0,34.1,27.0,14.8,0000.0,0016.31,0005.48,0001.62
2022-04-17 18:52:00,,0825.2,4.99,0.00,25.2,24.3,00.0,34.1,27.0,14.8,0000.0,0015.77,0005.39,0001.64
2022-04-17 18:53:00,,0825.3,5.02,0.00,25.2,24.3,00.0,34.1,27.0,14.7,0000.0,0015.87,0005.47,0001.67
2022-04-17 18:54:00,,0825.4,4.99,0.00,25.2,24.3,00.0,34.1,27.0,14.9,0000.0,0015.92,0005.49,0001.68
2022-04-17 18:55:00,,0825.3,4.99,0.00,25.2,24.3,00.0,34.1,27.0,15.0,0000.0,0016.07,0005.54,0001.68
2022-04-17 18:56:00,,0825.4,5.01,0.00,25.2,24.3,00.0,34.1,27.0,15.2,0000.0,0015.87,0005.45,0001.69
2022-04-17 18:57:00,,0825.3,5.00,0.00,25.2,24.3,00.0,34.1,27.0,15.5,0000.0,0015.46,0005.36,0001.67
2022-04-17 18:58:00,,0825.3,4.98,0.00,25.2,24.4,00.0,34.1,27.0,15.5,0000.0,0015.15,0005.35,0001.63
2022-04-17 18:59:00,,0825.3,5.01,0.00,25.2,24.4,00.0,34.1,27.0,15.2,0000.0,0014.42,0005.27,0001.60
